[[[{"header":{"parameterUnit":"kt","parameterCategory":2,"dx":1,"dy":1,"la1":30.253999710083008,"la2":30.299108505249023,"lo1":-89.0895004272461,"lo2":-89.04439544677734,"nx":28,"ny":28,"refTime":"2022-10-12T21:00:00:Z","depth":"0","parameterNumber":2,"parameterNumberName":"U-component_of_CURRENTS"},"data":[0.1335,0.1283,0.1296,0.1224,0.1197,0.1147,0.1132,0.1115,0.1129,0.1152,0.1219,0.1319,0.1504,0.1676,0.1798,0.1838,0.1703,0.1612,0.1592,0.1839,0.1866,0.1891,0.1816,0.1631,0.163,0.1217,0.1213,0.121,0.141,0.1413,0.1371,0.1321,0.1277,0.1288,0.126,0.1239,0.1225,0.1258,0.1298,0.1473,0.1661,0.1918,0.2159,0.2155,0.2164,0.2113,0.1953,0.1952,0.2324,0.2262,0.217,0.217,0.217,0.217,0.217,0.217,0.1545,0.1512,0.1485,0.1431,0.1397,0.1363,0.133,0.133,0.1327,0.1354,0.1434,0.1522,0.1747,0.2111,0.2278,0.2445,0.2408,0.2456,0.2387,0.23,0.2205,0.2545,0.2594,0.2595,0.2595,0.2596,0.2597,0,0.1639,0.1639,0.1596,0.1543,0.1503,0.1466,0.1444,0.1433,0.1481,0.15,0.155,0.1621,0.187,0.2055,0.2327,0.25,0.2528,0.2681,0.2567,0.2399,0.2221,0.2193,0.2596,0.2663,0.2664,0.2665,0.2666,0.2666,0.1772,0.1722,0.1682,0.1646,0.1622,0.1578,0.1557,0.1593,0.159,0.1658,0.1663,0.1801,0.1885,0.2187,0.2404,0.2631,0.2577,0.2704,0.2708,0.2542,0.2471,0.2359,0.2323,0.2678,0.2677,0.2676,0.2675,0,0.1854,0.1838,0.1754,0.1725,0.1715,0.167,0.1661,0.1647,0.1694,0.1707,0.1729,0.1857,0.2017,0.2205,0.2446,0.2552,0.2637,0.276,0.2649,0.2654,0.2559,0.248,0.2392,0.235,0.2815,0.2814,0.2814,0,0.1969,0.1894,0.188,0.1831,0.1766,0.1772,0.1728,0.1744,0.1782,0.1788,0.1893,0.1931,0.2145,0.2272,0.2424,0.2586,0.2629,0.2697,0.2717,0.2658,0.2647,0.2547,0.2463,0.2795,0.2794,0.2794,0.2793,0,0.2088,0.2,0.1922,0.1899,0.1859,0.1836,0.1822,0.1848,0.1848,0.1908,0.193,0.2058,0.2118,0.2276,0.2432,0.2439,0.2636,0.266,0.269,0.2686,0.2647,0.2634,0.2608,0.2792,0.2792,0.2792,0.2792,0,0.2174,0.2128,0.2024,0.1982,0.1959,0.1915,0.1894,0.1873,0.1921,0.1947,0.2016,0.2074,0.2179,0.2224,0.2414,0.2377,0.2469,0.255,0.2555,0.2493,0.2486,0.247,0.2567,0.2446,0.2594,0.2592,0.2591,0,0.23,0.2194,0.2184,0.2083,0.2025,0.2038,0.201,0.2005,0.2019,0.2026,0.211,0.2127,0.2181,0.2208,0.2294,0.239,0.2457,0.2395,0.2513,0.2515,0.2433,0.2538,0.2478,0.2545,0.2571,0.2573,0.2575,0,0.2388,0.2327,0.2305,0.2265,0.2212,0.2171,0.2141,0.2105,0.2095,0.2108,0.2105,0.2154,0.2203,0.2203,0.2242,0.2316,0.2421,0.234,0.2343,0.2339,0.2568,0.2515,0.2524,0.247,0.2473,0.2475,0.2559,0,0.2457,0.2408,0.2379,0.2297,0.227,0.2217,0.2191,0.2176,0.2168,0.215,0.2182,0.2192,0.2191,0.2228,0.2217,0.2296,0.2294,0.2308,0.225,0.2334,0.2361,0.2374,0.2211,0.221,0.221,0.2209,0,0,0.2543,0.2468,0.2456,0.2399,0.2362,0.2348,0.2283,0.2254,0.2183,0.2179,0.2175,0.2177,0.2162,0.2174,0.2202,0.2205,0.2237,0.2153,0.23,0.231,0.2319,0.2348,0.236,0.2208,0.2207,0.2207,0.2207,0,0.254,0.2531,0.2477,0.2443,0.2385,0.2339,0.234,0.2262,0.2232,0.219,0.2173,0.2198,0.214,0.2133,0.2124,0.219,0.2168,0.2211,0.2216,0.2291,0.2302,0.2312,0.2342,0.2354,0.2205,0.2205,0.2205,0,0.2573,0.2531,0.2508,0.2445,0.2393,0.2333,0.2314,0.2263,0.2217,0.2172,0.2103,0.2112,0.2085,0.2074,0.2072,0.2044,0.2106,0.2066,0.2072,0.2045,0.212,0.2134,0.2146,0.1983,0.1982,0.1981,0,0,0.2569,0.2532,0.247,0.2437,0.2416,0.2342,0.2308,0.2261,0.2201,0.2171,0.2116,0.2085,0.2072,0.2048,0.2023,0.2014,0.2021,0.2036,0.2047,0.2055,0.2034,0.211,0.2124,0.1977,0.1977,0.1977,0,0,0.2553,0.2479,0.2464,0.2422,0.2374,0.2272,0.224,0.221,0.2151,0.2142,0.2071,0.2053,0.2049,0.202,0.1979,0.2002,0.1966,0.1971,0.1989,0.2002,0.2012,0.1986,0.1898,0,0,0,0,0,0.2516,0.2496,0.2485,0.2471,0.2359,0.2293,0.2273,0.2192,0.2177,0.2154,0.2107,0.2055,0.1992,0.1953,0.1939,0.1957,0.193,0.1938,0.1946,0.197,0.1984,0.1996,0,0,0,0,0,0,0.251,0.2493,0.2485,0.2392,0.2366,0.2292,0.2236,0.2212,0.2176,0.2165,0.2067,0.2052,0.1986,0.1956,0.1944,0.1963,0.1902,0.1933,0.194,0.1947,0.1975,0.1986,0.1996,0,0,0,0,0,0.2505,0.2491,0.2337,0.2389,0.2367,0.2264,0.2235,0.2214,0.2175,0.2086,0.2067,0.212,0.1988,0.1974,0.1948,0.197,0.191,0.1905,0.1938,0.1943,0.1948,0.198,0,0,0,0,0,0,0.2501,0.2452,0.233,0.232,0.2389,0.2265,0.2244,0.2217,0.2096,0.2078,0.2137,0.213,0.1989,0.1978,0.1967,0.1977,0.1916,0.1912,0.1909,0.1942,0.1946,0.195,0,0,0,0,0,0,0.2459,0.2443,0.2324,0.2328,0.2317,0.2266,0.2247,0.2208,0.2097,0.2151,0.2142,0.2136,0.2026,0.1981,0.1972,0.1911,0.1921,0.1917,0.1914,0.1912,0.1946,0.1949,0,0,0,0,0,0,0.2451,0.2437,0.233,0.2321,0.2311,0.2181,0.223,0.2125,0.2081,0.2158,0.2078,0.2077,0.2032,0.202,0.1976,0.1919,0.1913,0.1921,0.1918,0.1916,0.1915,0,0,0,0,0,0,0,0.2444,0.2561,0.2403,0.2315,0.2306,0.2226,0.2222,0.2218,0.208,0.2079,0.2078,0.2078,0.1944,0.194,0.1935,0.1926,0,0,0.1921,0.1919,0,0,0,0,0,0,0,0,0.2564,0.2562,0.2403,0.2401,0.24,0.2226,0.2222,0.2219,0.208,0.2079,0.2079,0.2078,0.1943,0.1939,0.1936,0,0,0,0,0,0,0,0,0,0,0,0,0,0,0,0.2403,0.2401,0,0.2225,0.2223,0.222,0.208,0.2079,0.2079,0.2078,0.1942,0.1939,0.1936,0,0,0,0,0,0,0,0,0,0,0,0,0,0,0,0,0,0,0,0,0,0,0,0,0,0,0,0,0,0,0,0,0,0,0,0,0,0,0,0,0,0,0,0,0,0,0,0,0,0,0,0,0,0,0,0,0,0,0,0,0,0,0,0,0,0,0,0,0]}],[{"header":{"parameterUnit":"kt","parameterCategory":2,"dx":1,"dy":1,"la1":30.253999710083008,"la2":30.299108505249023,"lo1":-89.0895004272461,"lo2":-89.04439544677734,"nx":28,"ny":28,"refTime":"2022-10-12T21:00:00:Z","depth":"0","parameterNumber":3,"parameterNumberName":"V-component_of_CURRENTS"},"data":[-0.1509,-0.145,-0.1408,-0.1295,-0.1224,-0.1095,-0.1017,-0.0899,-0.0776,-0.0574,-0.0426,-0.0324,-0.0195,-0.0098,-0.0019,0.0001,0.0051,0.0018,0.0055,0.0007,-0.0,-0.0008,0.003,0.0063,0.0063,0.0173,0.0174,0.0174,-0.1507,-0.1456,-0.1399,-0.1296,-0.1226,-0.1175,-0.1048,-0.096,-0.0824,-0.0672,-0.0535,-0.0359,-0.0244,-0.0151,-0.0082,-0.007,-0.0045,-0.0056,-0.0048,-0.0004,-0.0083,-0.0047,-0.0029,-0.0029,-0.0029,-0.0029,-0.0029,-0.0029,-0.1493,-0.1459,-0.1385,-0.1312,-0.1242,-0.1152,-0.108,-0.0979,-0.0858,-0.0676,-0.0603,-0.0442,-0.0328,-0.0223,-0.0199,-0.0141,-0.0161,-0.0137,-0.0148,-0.0161,-0.0083,-0.0198,-0.0184,-0.0185,-0.0185,-0.0185,-0.0185,0,-0.1473,-0.1439,-0.1374,-0.1299,-0.1236,-0.115,-0.1058,-0.1003,-0.0853,-0.0756,-0.0612,-0.0517,-0.0386,-0.0285,-0.0239,-0.0221,-0.0192,-0.0223,-0.019,-0.0129,-0.0159,-0.0104,-0.0203,-0.0196,-0.0197,-0.0197,-0.0197,-0.0197,-0.1477,-0.143,-0.1319,-0.1278,-0.1227,-0.1141,-0.1076,-0.0961,-0.0881,-0.071,-0.0655,-0.0535,-0.0419,-0.0321,-0.0263,-0.0236,-0.0204,-0.0232,-0.0208,-0.02,-0.0201,-0.0209,-0.0165,-0.0202,-0.0202,-0.0201,-0.0201,0,-0.149,-0.1413,-0.1324,-0.1206,-0.1173,-0.1116,-0.1,-0.0925,-0.0825,-0.0707,-0.0675,-0.0527,-0.0434,-0.0357,-0.0283,-0.0274,-0.0215,-0.0235,-0.0238,-0.0229,-0.0201,-0.0206,-0.0207,-0.0155,-0.0269,-0.0269,-0.0269,0,-0.1481,-0.1414,-0.131,-0.126,-0.1173,-0.108,-0.098,-0.0894,-0.0775,-0.0678,-0.0585,-0.0498,-0.0399,-0.0335,-0.0306,-0.0258,-0.0252,-0.0232,-0.0226,-0.0201,-0.0199,-0.0148,-0.0148,-0.0212,-0.0211,-0.0211,-0.021,0,-0.1504,-0.1389,-0.1302,-0.1258,-0.1116,-0.1062,-0.0989,-0.0847,-0.0765,-0.0639,-0.0589,-0.0463,-0.0398,-0.0363,-0.0285,-0.0284,-0.0227,-0.0215,-0.022,-0.0222,-0.0177,-0.0175,-0.0155,-0.0209,-0.0209,-0.0209,-0.0209,0,-0.1485,-0.1422,-0.1321,-0.1197,-0.1169,-0.1101,-0.0954,-0.086,-0.0715,-0.0653,-0.055,-0.0469,-0.0357,-0.0358,-0.0262,-0.0261,-0.0257,-0.0225,-0.0226,-0.0189,-0.0178,-0.0245,-0.0227,-0.0192,-0.0258,-0.0258,-0.0258,0,-0.1508,-0.1417,-0.1359,-0.1255,-0.1196,-0.1113,-0.1013,-0.0902,-0.0809,-0.0707,-0.0591,-0.0461,-0.0416,-0.0352,-0.0312,-0.0217,-0.0221,-0.021,-0.019,-0.0191,-0.022,-0.0201,-0.0172,-0.0227,-0.0257,-0.0257,-0.0257,0,-0.1524,-0.1411,-0.1402,-0.135,-0.1247,-0.1198,-0.1089,-0.0968,-0.0901,-0.0788,-0.0696,-0.0476,-0.0453,-0.0344,-0.0245,-0.021,-0.0223,-0.0196,-0.0194,-0.0272,-0.0215,-0.0203,-0.0204,-0.0189,-0.0188,-0.0188,-0.0256,0,-0.1453,-0.1417,-0.1406,-0.1329,-0.1277,-0.1228,-0.1136,-0.1066,-0.1006,-0.0925,-0.0764,-0.0616,-0.0451,-0.0384,-0.0299,-0.0197,-0.0214,-0.0178,-0.0193,-0.0164,-0.0196,-0.0197,-0.017,-0.0169,-0.0168,-0.0168,0,0,-0.1477,-0.1437,-0.1412,-0.1372,-0.1328,-0.128,-0.1228,-0.1148,-0.1017,-0.0958,-0.0949,-0.0654,-0.0533,-0.0335,-0.0293,-0.0225,-0.0231,-0.0217,-0.016,-0.016,-0.0159,-0.019,-0.0192,-0.0166,-0.0166,-0.0166,-0.0165,0,-0.1449,-0.1445,-0.1428,-0.1382,-0.1329,-0.1267,-0.1268,-0.1179,-0.1117,-0.0988,-0.0885,-0.0769,-0.0548,-0.0419,-0.0323,-0.0228,-0.0211,-0.0171,-0.0181,-0.0155,-0.0156,-0.0156,-0.0186,-0.0189,-0.0163,-0.0163,-0.0164,0,-0.1437,-0.1414,-0.1409,-0.1362,-0.1318,-0.1258,-0.1244,-0.1197,-0.1125,-0.1021,-0.0883,-0.0776,-0.0602,-0.0442,-0.0369,-0.0367,-0.0216,-0.0212,-0.0213,-0.0218,-0.0191,-0.0191,-0.019,-0.0208,-0.0209,-0.0209,0,0,-0.142,-0.1408,-0.136,-0.1356,-0.1339,-0.1268,-0.1235,-0.1187,-0.109,-0.104,-0.0926,-0.0784,-0.0637,-0.0557,-0.042,-0.0287,-0.0285,-0.0224,-0.0222,-0.022,-0.0225,-0.0198,-0.0196,-0.0212,-0.0212,-0.0212,0,0,-0.1404,-0.1364,-0.1355,-0.1349,-0.1298,-0.1207,-0.118,-0.1147,-0.1029,-0.1015,-0.0885,-0.0844,-0.0698,-0.0612,-0.0666,-0.0413,-0.0414,-0.04,-0.0481,-0.0477,-0.0475,-0.0516,-0.0597,0,0,0,0,0,-0.1373,-0.1377,-0.137,-0.1366,-0.1287,-0.1223,-0.1202,-0.1131,-0.1126,-0.1095,-0.0973,-0.0923,-0.0596,-0.0641,-0.0604,-0.0548,-0.025,-0.0244,-0.0237,-0.031,-0.0306,-0.0303,0,0,0,0,0,0,-0.137,-0.1366,-0.1369,-0.1293,-0.1274,-0.1222,-0.1182,-0.1159,-0.1126,-0.1117,-0.0946,-0.0917,-0.0811,-0.0654,-0.0621,-0.057,-0.0608,-0.0248,-0.0242,-0.0237,-0.0308,-0.0306,-0.0303,0,0,0,0,0,-0.1369,-0.1365,-0.1275,-0.1288,-0.1272,-0.1184,-0.1182,-0.1162,-0.112,-0.0972,-0.0943,-0.1077,-0.0814,-0.0778,-0.0634,-0.0587,-0.063,-0.0618,-0.0244,-0.0239,-0.0235,-0.0307,0,0,0,0,0,0,-0.1367,-0.1307,-0.1267,-0.1258,-0.1299,-0.1182,-0.1166,-0.1166,-0.0973,-0.0948,-0.1095,-0.109,-0.0815,-0.0787,-0.076,-0.0598,-0.0647,-0.0635,-0.0628,-0.0241,-0.0237,-0.0234,0,0,0,0,0,0,-0.131,-0.13,-0.1262,-0.128,-0.127,-0.1181,-0.1168,-0.1047,-0.0969,-0.11,-0.1094,-0.1095,-0.0847,-0.0793,-0.0772,-0.0585,-0.0661,-0.065,-0.0642,-0.0637,-0.0238,-0.0235,0,0,0,0,0,0,-0.1303,-0.1294,-0.1281,-0.1274,-0.1265,-0.1135,-0.1066,-0.0976,-0.1034,-0.1107,-0.1035,-0.1035,-0.0854,-0.0831,-0.078,-0.0603,-0.0589,-0.0661,-0.0653,-0.0647,-0.0644,0,0,0,0,0,0,0,-0.1297,-0.1392,-0.1345,-0.1268,-0.1261,-0.1169,-0.1164,-0.116,-0.1034,-0.1035,-0.1035,-0.1035,-0.0726,-0.0713,-0.0701,-0.0617,0,0,-0.0662,-0.0656,0,0,0,0,0,0,0,0,-0.1392,-0.1392,-0.1345,-0.1344,-0.1343,-0.1168,-0.1164,-0.1161,-0.1034,-0.1035,-0.1035,-0.1035,-0.0722,-0.0712,-0.0702,0,0,0,0,0,0,0,0,0,0,0,0,0,0,0,-0.1345,-0.1344,0,-0.1168,-0.1164,-0.1161,-0.1034,-0.1035,-0.1035,-0.1035,-0.072,-0.0711,-0.0703,0,0,0,0,0,0,0,0,0,0,0,0,0,0,0,0,0,0,0,0,0,0,0,0,0,0,0,0,0,0,0,0,0,0,0,0,0,0,0,0,0,0,0,0,0,0,0,0,0,0,0,0,0,0,0,0,0,0,0,0,0,0,0,0,0,0,0,0,0]}]],[[{"header":{"parameterUnit":"kt","parameterCategory":2,"dx":1,"dy":1,"la1":30.253999710083008,"la2":30.299108505249023,"lo1":-89.0895004272461,"lo2":-89.04439544677734,"nx":28,"ny":28,"refTime":"2022-10-12T21:00:00:Z","depth":"2","parameterNumber":2,"parameterNumberName":"U-component_of_CURRENTS"},"data":[0.1309,0.1233,0.1235,0.1139,0.1113,0.1076,0.1074,0.1062,0.1051,0.0944,0.0858,0.0856,0.0787,0.0606,0.0576,0.0565,0.0863,0.0573,0.0886,0.1162,0.122,0.1343,0.1187,0,0,0,0,0,0.1404,0.1382,0.1331,0.1271,0.1223,0.1244,0.1226,0.121,0.1203,0.1213,0.1226,0.0956,0.0886,0.0955,0.0829,0.0756,0.0896,0.0806,0.0995,0.1053,0.1107,0.0975,0.0524,0.0525,0.0525,0.0526,0,0,0.1555,0.1513,0.1472,0.1411,0.1373,0.1346,0.1318,0.1313,0.1315,0.1349,0.1406,0.1384,0.1314,0.1212,0.1267,0.1297,0.1388,0.1363,0.1396,0.1435,0.1305,0.1151,0.0948,0.0951,0.0953,0.0955,0.0957,0,0.1648,0.1652,0.1606,0.1548,0.1508,0.147,0.1442,0.1434,0.1482,0.151,0.1558,0.1604,0.1658,0.1617,0.1638,0.1694,0.1904,0.1782,0.2278,0.1874,0.1732,0.1752,0.1775,0.1665,0.1672,0.1677,0.1681,0.1684,0.1756,0.1723,0.169,0.1653,0.1635,0.1592,0.1567,0.1602,0.1599,0.1672,0.1685,0.1802,0.186,0.2022,0.2051,0.2146,0.2377,0.1955,0.1919,0.2237,0.2254,0.2257,0.2259,0.1757,0.1747,0.174,0.1734,0,0.1806,0.181,0.1751,0.1729,0.1719,0.1682,0.1661,0.1655,0.1708,0.1736,0.1758,0.1898,0.2028,0.2211,0.2457,0.2429,0.2534,0.2514,0.2253,0.2226,0.2313,0.2303,0.2279,0.2269,0.226,0.2254,0.2248,0,0.188,0.1839,0.1835,0.1803,0.1752,0.1758,0.173,0.1751,0.1804,0.1814,0.1931,0.1973,0.2204,0.2328,0.2472,0.2498,0.2677,0.2508,0.252,0.2372,0.2331,0.2777,0.2766,0.2868,0.2868,0.2868,0.2868,0,0.1945,0.1909,0.1862,0.1846,0.1819,0.1804,0.1793,0.1829,0.1831,0.1923,0.1953,0.2098,0.217,0.2334,0.2474,0.2493,0.2679,0.2733,0.2549,0.2529,0.2379,0.2337,0.2867,0.2867,0.2867,0.2867,0.2867,0,0.2001,0.1983,0.1928,0.1894,0.1884,0.1856,0.1848,0.1841,0.1912,0.1946,0.2032,0.2107,0.2215,0.2267,0.2456,0.2429,0.2526,0.2609,0.2615,0.2337,0.234,0.2149,0.216,0.2649,0.2647,0.2646,0.2645,0,0.2051,0.2014,0.2017,0.1961,0.1929,0.1941,0.1924,0.1933,0.1961,0.2001,0.2093,0.2141,0.2184,0.2234,0.233,0.2448,0.2512,0.2455,0.2605,0.2607,0.23,0.2353,0.2162,0.2157,0.2627,0.2628,0.263,0,0.2088,0.208,0.2077,0.2048,0.2035,0.2016,0.2008,0.1996,0.2,0.2043,0.2063,0.2143,0.2205,0.2228,0.2293,0.2374,0.2475,0.2418,0.2423,0.2378,0.265,0.2362,0.2347,0.2572,0.2574,0.2577,0.2615,0,0.208,0.2089,0.2094,0.2067,0.206,0.2049,0.2034,0.2048,0.2053,0.2045,0.2118,0.2168,0.2211,0.2264,0.2264,0.237,0.2365,0.2412,0.2349,0.2445,0.245,0.2461,0.2318,0.2317,0.2317,0.2317,0,0,0.2096,0.2097,0.2122,0.2109,0.2087,0.2097,0.2066,0.206,0.2047,0.2054,0.2054,0.214,0.2162,0.2212,0.224,0.2283,0.232,0.2228,0.2411,0.2421,0.2431,0.2439,0.2451,0.2316,0.2316,0.2315,0.2315,0,0.207,0.2119,0.2122,0.2112,0.2106,0.2077,0.209,0.2061,0.2046,0.2057,0.2054,0.2114,0.214,0.2149,0.216,0.227,0.2257,0.2317,0.2303,0.2405,0.2415,0.2425,0.2435,0.2446,0.2314,0.2314,0.2314,0,0.205,0.2056,0.2066,0.208,0.2062,0.2035,0.2018,0.2019,0.199,0.1979,0.1962,0.2005,0.2024,0.2066,0.2095,0.2068,0.2193,0.2157,0.2162,0.2119,0.222,0.2234,0.2246,0.2076,0.2074,0.2073,0,0,0.2029,0.2052,0.2035,0.2069,0.2069,0.203,0.2024,0.1993,0.1976,0.1968,0.1951,0.1965,0.1993,0.2001,0.2023,0.208,0.2086,0.2123,0.2134,0.2143,0.2105,0.2208,0.2222,0.2068,0.2068,0.2068,0,0,0.1996,0.1986,0.1985,0.2027,0.2011,0.1954,0.196,0.1939,0.1932,0.1932,0.1891,0.1887,0.1941,0.1947,0.1886,0.1997,0.196,0.1972,0.1956,0.197,0.1981,0.1918,0.1809,0,0,0,0,0,0.1951,0.1994,0.1995,0.1999,0.1988,0.1971,0.1964,0.1909,0.1893,0.1897,0.1886,0.1847,0.1907,0.1851,0.1855,0.1891,0.2006,0.2017,0.2028,0.2023,0.2039,0.2051,0,0,0,0,0,0,0.1952,0.1958,0.1992,0.1946,0.1943,0.1969,0.1902,0.1887,0.1889,0.1879,0.1851,0.1846,0.1802,0.1846,0.1851,0.1885,0.1807,0.2011,0.202,0.2028,0.2028,0.2041,0.2052,0,0,0,0,0,0.1953,0.1957,0.1964,0.1943,0.194,0.1881,0.19,0.1887,0.1884,0.1841,0.1833,0.1846,0.1804,0.1806,0.1849,0.1884,0.1804,0.1806,0.2017,0.2024,0.2031,0.2035,0,0,0,0,0,0,0.1953,0.1929,0.1961,0.1956,0.1925,0.1877,0.187,0.1887,0.1845,0.1837,0.1834,0.1826,0.1806,0.1807,0.1809,0.1885,0.1801,0.1803,0.1804,0.2022,0.2028,0.2033,0,0,0,0,0,0,0.1926,0.1926,0.1958,0.1939,0.1932,0.1873,0.1868,0.1896,0.1847,0.1839,0.1831,0.1831,0.1824,0.1808,0.1809,0.1853,0.1799,0.1801,0.1802,0.1803,0.2027,0.2032,0,0,0,0,0,0,0.1924,0.1924,0.1939,0.1934,0.1927,0.187,0.1897,0.1899,0.1802,0.1842,0.1796,0.1793,0.1828,0.1827,0.181,0.1853,0.1853,0.1799,0.18,0.1801,0.1802,0,0,0,0,0,0,0,0.1923,0.1947,0.1993,0.193,0.1923,0.1918,0.1916,0.1914,0.1801,0.1799,0.1796,0.1794,0.1789,0.1791,0.1793,0.1853,0,0,0.1799,0.18,0,0,0,0,0,0,0,0,0.1944,0.1946,0.1993,0.1992,0.1992,0.1918,0.1916,0.1915,0.1801,0.1799,0.1797,0.1795,0.179,0.1791,0.1793,0,0,0,0,0,0,0,0,0,0,0,0,0,0,0,0.1993,0.1992,0,0.1917,0.1916,0.1915,0.18,0.1799,0.1797,0.1796,0.179,0.1791,0.1793,0,0,0,0,0,0,0,0,0,0,0,0,0,0,0,0,0,0,0,0,0,0,0,0,0,0,0,0,0,0,0,0,0,0,0,0,0,0,0,0,0,0,0,0,0,0,0,0,0,0,0,0,0,0,0,0,0,0,0,0,0,0,0,0,0,0,0,0,0]}],[{"header":{"parameterUnit":"kt","parameterCategory":2,"dx":1,"dy":1,"la1":30.253999710083008,"la2":30.299108505249023,"lo1":-89.0895004272461,"lo2":-89.04439544677734,"nx":28,"ny":28,"refTime":"2022-10-12T21:00:00:Z","depth":"2","parameterNumber":3,"parameterNumberName":"V-component_of_CURRENTS"},"data":[-0.0458,-0.0522,-0.0537,-0.0615,-0.0672,-0.0685,-0.0658,-0.055,-0.0415,-0.0178,-0.0005,0.0168,0.0238,0.0176,0.0114,0.006,0.0046,0.0063,0.0238,0.0057,0.0053,0.0037,0.0032,0,0,0,0,0,-0.0426,-0.0483,-0.0536,-0.0604,-0.0635,-0.0666,-0.0617,-0.0561,-0.0471,-0.0303,-0.016,0.0058,0.0153,0.0213,0.0157,0.017,0.0093,0.0184,0.0034,0.0031,0.0028,0.0026,0.0059,0.0059,0.0058,0.0058,0,0,-0.0378,-0.0418,-0.0489,-0.056,-0.0608,-0.0603,-0.0597,-0.0552,-0.0484,-0.035,-0.0236,-0.0033,0.0019,0.0231,0.0224,0.0205,0.0232,0.0206,0.0198,0.019,0.0203,0.0199,0.028,0.0281,0.0282,0.0282,0.0283,0,-0.0338,-0.0384,-0.0421,-0.0504,-0.0555,-0.0569,-0.0585,-0.0556,-0.0493,-0.0429,-0.0299,-0.0185,-0.0027,0.0067,0.0186,0.0218,0.0142,0.0171,0.019,-0.001,-0.0025,-0.0035,-0.0042,0.0015,0.0014,0.0014,0.0014,0.0014,-0.0324,-0.0343,-0.042,-0.0458,-0.0495,-0.0536,-0.0552,-0.053,-0.0497,-0.0395,-0.0358,-0.0252,-0.0125,0.0041,0.0084,0.0162,0.0147,0.015,0.0118,0.0121,0.0114,0.0104,0.0095,0.0009,0.0009,0.001,0.001,0,-0.0326,-0.0346,-0.0384,-0.0421,-0.0442,-0.0473,-0.0496,-0.0479,-0.045,-0.04,-0.0394,-0.0295,-0.0197,-0.0133,-0.0062,-0.0021,0.0052,0.008,-0.0021,-0.0024,0.0079,0.0074,0.0176,0.018,0.0183,0.0186,0.0188,0,-0.033,-0.0353,-0.0397,-0.041,-0.0435,-0.0439,-0.0445,-0.0432,-0.0395,-0.0358,-0.0323,-0.027,-0.023,-0.0166,-0.0144,-0.0048,-0.0084,-0.0007,-0.0002,-0.0091,-0.0092,-0.0129,-0.0134,-0.0088,-0.0088,-0.0088,-0.0089,0,-0.0356,-0.0372,-0.0386,-0.0395,-0.0405,-0.0417,-0.0422,-0.0387,-0.0367,-0.0326,-0.0312,-0.0249,-0.0233,-0.0203,-0.0157,-0.0184,-0.0089,-0.0122,-0.0036,-0.0032,-0.0093,-0.0094,-0.0089,-0.0089,-0.0089,-0.0089,-0.0089,0,-0.0371,-0.0386,-0.0389,-0.0413,-0.0418,-0.0418,-0.0407,-0.038,-0.0331,-0.0325,-0.0292,-0.0276,-0.0212,-0.0241,-0.0172,-0.0197,-0.0197,-0.0176,-0.0175,-0.0083,-0.0102,-0.016,-0.0122,-0.0185,-0.0186,-0.0187,-0.0187,0,-0.0407,-0.0408,-0.0419,-0.0422,-0.043,-0.0446,-0.0414,-0.0396,-0.0383,-0.0354,-0.0315,-0.0285,-0.0286,-0.0286,-0.025,-0.0215,-0.0195,-0.0217,-0.0207,-0.0206,-0.0126,-0.007,-0.0156,-0.0133,-0.0196,-0.0195,-0.0194,0,-0.0434,-0.046,-0.047,-0.0488,-0.0501,-0.0496,-0.0466,-0.0439,-0.0425,-0.0413,-0.0379,-0.0307,-0.0324,-0.0288,-0.0267,-0.0235,-0.021,-0.0261,-0.026,-0.0254,-0.0188,-0.0095,-0.0081,-0.0225,-0.0224,-0.0223,-0.0201,0,-0.0478,-0.0496,-0.0496,-0.0505,-0.0506,-0.0508,-0.0498,-0.0497,-0.0514,-0.0492,-0.0455,-0.0416,-0.0374,-0.0352,-0.0332,-0.0275,-0.0297,-0.0301,-0.03,-0.028,-0.0276,-0.027,-0.0336,-0.0336,-0.0336,-0.0336,0,0,-0.0524,-0.0517,-0.0541,-0.054,-0.0545,-0.0571,-0.0561,-0.0542,-0.0529,-0.0517,-0.0542,-0.0467,-0.0437,-0.035,-0.0336,-0.0332,-0.0339,-0.0328,-0.0295,-0.0291,-0.0286,-0.028,-0.0275,-0.0337,-0.0337,-0.0337,-0.0337,0,-0.0526,-0.0554,-0.0549,-0.0553,-0.0571,-0.0559,-0.0574,-0.0566,-0.0563,-0.0544,-0.0525,-0.0501,-0.0459,-0.04,-0.0367,-0.0341,-0.0338,-0.0344,-0.0318,-0.0298,-0.0293,-0.0289,-0.0282,-0.0277,-0.0337,-0.0337,-0.0337,0,-0.0553,-0.056,-0.0559,-0.0559,-0.056,-0.0544,-0.0561,-0.0565,-0.0544,-0.0539,-0.0519,-0.0504,-0.0456,-0.041,-0.0398,-0.0398,-0.0341,-0.0357,-0.0356,-0.0344,-0.0322,-0.0317,-0.0313,-0.0371,-0.0371,-0.0371,0,0,-0.0563,-0.0568,-0.0561,-0.0556,-0.0563,-0.0559,-0.0558,-0.0559,-0.0544,-0.0544,-0.0527,-0.0504,-0.0462,-0.0448,-0.0415,-0.0382,-0.0374,-0.0361,-0.036,-0.0358,-0.0346,-0.0324,-0.0319,-0.0372,-0.0372,-0.0372,0,0,-0.0552,-0.0551,-0.0569,-0.0558,-0.0555,-0.052,-0.0525,-0.0534,-0.0525,-0.054,-0.0509,-0.0502,-0.0481,-0.0464,-0.0473,-0.0403,-0.041,-0.0408,-0.0406,-0.0404,-0.0402,-0.0393,-0.0443,0,0,0,0,0,-0.0561,-0.0552,-0.0569,-0.0568,-0.0543,-0.0518,-0.0514,-0.051,-0.0536,-0.0536,-0.0525,-0.0511,-0.0451,-0.0459,-0.0451,-0.0425,-0.0377,-0.0376,-0.0375,-0.0366,-0.0364,-0.0362,0,0,0,0,0,0,-0.056,-0.0557,-0.0569,-0.0536,-0.0531,-0.0518,-0.0516,-0.0514,-0.0535,-0.0537,-0.0513,-0.0508,-0.0473,-0.0461,-0.0454,-0.043,-0.0445,-0.0377,-0.0376,-0.0375,-0.0365,-0.0364,-0.0362,0,0,0,0,0,-0.0559,-0.0557,-0.0524,-0.0535,-0.0531,-0.0524,-0.0517,-0.0515,-0.0535,-0.0491,-0.0489,-0.0541,-0.0472,-0.0467,-0.0457,-0.0433,-0.0449,-0.0447,-0.0376,-0.0375,-0.0375,-0.0365,0,0,0,0,0,0,-0.0559,-0.0542,-0.0523,-0.0521,-0.055,-0.0525,-0.0523,-0.0516,-0.0488,-0.0486,-0.0513,-0.0515,-0.0471,-0.0467,-0.0463,-0.0435,-0.0453,-0.045,-0.0449,-0.0376,-0.0375,-0.0375,0,0,0,0,0,0,-0.0544,-0.0541,-0.0522,-0.054,-0.054,-0.0526,-0.0524,-0.0495,-0.0487,-0.051,-0.0511,-0.0514,-0.0485,-0.0467,-0.0464,-0.0417,-0.0456,-0.0453,-0.0452,-0.0451,-0.0375,-0.0375,0,0,0,0,0,0,-0.0542,-0.0539,-0.054,-0.054,-0.0539,-0.0513,-0.05,-0.0477,-0.0501,-0.0511,-0.0505,-0.0506,-0.0485,-0.0481,-0.0465,-0.042,-0.0418,-0.0456,-0.0454,-0.0453,-0.0452,0,0,0,0,0,0,0,-0.0541,-0.0566,-0.0541,-0.0539,-0.0539,-0.0505,-0.0504,-0.0503,-0.0502,-0.0503,-0.0504,-0.0505,-0.0469,-0.0467,-0.0464,-0.0421,0,0,-0.0456,-0.0455,0,0,0,0,0,0,0,0,-0.0566,-0.0566,-0.0541,-0.0541,-0.0541,-0.0505,-0.0504,-0.0503,-0.0502,-0.0503,-0.0504,-0.0505,-0.0469,-0.0467,-0.0464,0,0,0,0,0,0,0,0,0,0,0,0,0,0,0,-0.0541,-0.0541,0,-0.0505,-0.0504,-0.0503,-0.0502,-0.0503,-0.0504,-0.0505,-0.0468,-0.0466,-0.0465,0,0,0,0,0,0,0,0,0,0,0,0,0,0,0,0,0,0,0,0,0,0,0,0,0,0,0,0,0,0,0,0,0,0,0,0,0,0,0,0,0,0,0,0,0,0,0,0,0,0,0,0,0,0,0,0,0,0,0,0,0,0,0,0,0,0,0,0,0]}]],[[{"header":{"parameterUnit":"kt","parameterCategory":2,"dx":1,"dy":1,"la1":30.253999710083008,"la2":30.299108505249023,"lo1":-89.0895004272461,"lo2":-89.04439544677734,"nx":28,"ny":28,"refTime":"2022-10-12T21:00:00:Z","depth":"4","parameterNumber":2,"parameterNumberName":"U-component_of_CURRENTS"},"data":[-0.0679,-0.0709,-0.0717,-0.064,-0.0579,-0.0578,-0.0556,-0.0545,-0.0485,-0.0461,-0.0448,-0.0466,-0.0461,-0.0487,-0.0457,-0.0464,-0.0701,-0.0532,-0.0531,-0.0992,-0.1022,-0.1049,-0.0908,0,0,0,0,0,-0.0735,-0.0707,-0.0733,-0.0633,-0.0678,-0.0633,-0.0609,-0.0584,-0.0539,-0.0522,-0.0498,-0.05,-0.0482,-0.0503,-0.0468,-0.0558,-0.0782,-0.0518,-0.091,-0.1011,-0.1044,-0.0896,0,0,0,0,0,0,-0.0778,-0.0778,-0.0739,-0.0663,-0.0662,-0.0607,-0.0585,-0.0517,-0.0531,-0.0559,-0.0532,-0.0581,-0.0652,-0.0637,-0.0683,-0.0704,-0.0756,-0.0844,-0.0884,-0.0917,-0.0768,-0.0439,-0.0411,0,0,0,0,0,-0.0732,-0.073,-0.0703,-0.0636,-0.0571,-0.0559,-0.0471,-0.0495,-0.0456,-0.0566,-0.056,-0.0586,-0.0687,-0.0785,-0.0815,-0.0922,-0.1236,-0.1164,-0.1186,-0.1255,-0.1037,-0.1055,-0.1052,-0.117,-0.1175,-0.1177,-0.1179,0,-0.0706,-0.0669,-0.0594,-0.0563,-0.048,-0.039,-0.038,-0.0344,-0.0387,-0.0488,-0.057,-0.0671,-0.0733,-0.0924,-0.1079,-0.1186,-0.1197,-0.1249,-0.1322,-0.1088,-0.1102,-0.109,-0.1077,-0.1206,-0.1204,-0.1201,-0.1199,0,-0.0703,-0.0625,-0.057,-0.0447,-0.0401,-0.0342,-0.0301,-0.0355,-0.0367,-0.0514,-0.0522,-0.0682,-0.0776,-0.0987,-0.1293,-0.1313,-0.1459,-0.142,-0.1464,-0.1494,-0.1139,-0.1114,-0.125,-0.124,-0.1232,-0.1225,-0.1219,0,-0.0664,-0.0624,-0.0505,-0.0466,-0.0398,-0.0312,-0.0306,-0.0294,-0.039,-0.0494,-0.0547,-0.0663,-0.0931,-0.1109,-0.1187,-0.1268,-0.1503,-0.1339,-0.1365,-0.1572,-0.1547,-0.1722,-0.1712,-0.181,-0.181,-0.1809,-0.1809,0,-0.0709,-0.0609,-0.053,-0.0495,-0.0423,-0.0358,-0.0305,-0.0367,-0.0422,-0.0497,-0.0568,-0.0756,-0.0873,-0.1045,-0.1146,-0.1132,-0.1485,-0.157,-0.1358,-0.133,-0.1715,-0.1705,-0.1808,-0.1808,-0.1808,-0.1808,-0.1808,0,-0.0701,-0.0669,-0.0568,-0.051,-0.0487,-0.0417,-0.0414,-0.0383,-0.0508,-0.0496,-0.0595,-0.0678,-0.086,-0.0818,-0.1135,-0.1008,-0.1072,-0.1219,-0.1229,-0.108,-0.1057,-0.1242,-0.1249,-0.1245,-0.1241,-0.1237,-0.1234,0,-0.0742,-0.0685,-0.0659,-0.0579,-0.053,-0.0507,-0.0477,-0.0482,-0.0466,-0.0513,-0.0657,-0.0709,-0.0656,-0.0655,-0.0793,-0.1007,-0.1076,-0.0954,-0.1308,-0.1317,-0.1014,-0.0976,-0.1115,-0.1183,-0.1189,-0.1194,-0.1198,0,-0.079,-0.0744,-0.0742,-0.0705,-0.0651,-0.064,-0.0577,-0.0573,-0.0594,-0.0506,-0.0561,-0.062,-0.0648,-0.0736,-0.0806,-0.0954,-0.0994,-0.0921,-0.0938,-0.0903,-0.1264,-0.0946,-0.0945,-0.1079,-0.1086,-0.1092,-0.1162,0,-0.0765,-0.076,-0.0759,-0.0734,-0.0725,-0.0682,-0.0647,-0.0607,-0.0522,-0.0525,-0.0573,-0.065,-0.0737,-0.0744,-0.0753,-0.0911,-0.085,-0.0971,-0.1049,-0.1046,-0.1061,-0.1088,-0.084,-0.0845,-0.0849,-0.0852,0,0,-0.0793,-0.0791,-0.0842,-0.0822,-0.0794,-0.0803,-0.0746,-0.0746,-0.0691,-0.07,-0.0608,-0.072,-0.0785,-0.0955,-0.088,-0.0914,-0.0944,-0.0857,-0.1019,-0.1035,-0.1052,-0.1068,-0.1089,-0.0859,-0.086,-0.0861,-0.0862,0,-0.078,-0.0828,-0.0836,-0.0834,-0.0825,-0.0821,-0.0807,-0.0762,-0.0749,-0.067,-0.0745,-0.0804,-0.0771,-0.091,-0.0974,-0.0942,-0.1012,-0.0892,-0.0827,-0.1041,-0.1052,-0.1064,-0.108,-0.1096,-0.0872,-0.0871,-0.0871,0,-0.0769,-0.0794,-0.0811,-0.0845,-0.0857,-0.0826,-0.0861,-0.085,-0.0813,-0.0889,-0.0815,-0.086,-0.0984,-0.0976,-0.0989,-0.1022,-0.1091,-0.1027,-0.1012,-0.1079,-0.131,-0.1321,-0.1331,-0.1212,-0.1211,-0.1211,0,0,-0.076,-0.0799,-0.08,-0.0837,-0.0832,-0.0848,-0.0862,-0.0855,-0.0869,-0.0884,-0.0879,-0.0922,-0.0988,-0.0999,-0.1056,-0.1056,-0.1191,-0.1055,-0.104,-0.1025,-0.1081,-0.1308,-0.1318,-0.1211,-0.1211,-0.1211,0,0,-0.0749,-0.0769,-0.078,-0.0814,-0.083,-0.0852,-0.0874,-0.0876,-0.0908,-0.0886,-0.0947,-0.096,-0.0966,-0.1041,-0.1023,-0.1058,-0.1144,-0.1149,-0.0949,-0.0931,-0.0916,-0.0962,-0.109,0,0,0,0,0,-0.0733,-0.076,-0.0769,-0.0775,-0.0824,-0.0844,-0.0853,-0.0884,-0.0875,-0.0902,-0.0912,-0.0962,-0.1048,-0.1033,-0.1048,-0.1002,-0.1203,-0.1204,-0.1206,-0.0955,-0.0935,-0.0918,0,0,0,0,0,0,-0.0735,-0.0742,-0.0768,-0.0786,-0.0796,-0.0844,-0.0853,-0.0863,-0.0875,-0.088,-0.0953,-0.0965,-0.1009,-0.103,-0.1043,-0.0997,-0.1086,-0.1204,-0.1205,-0.1206,-0.0948,-0.0932,-0.0918,0,0,0,0,0,-0.0736,-0.0742,-0.0813,-0.0787,-0.0796,-0.0832,-0.0853,-0.0862,-0.0885,-0.0939,-0.0952,-0.0903,-0.1008,-0.1021,-0.1038,-0.0989,-0.1078,-0.1082,-0.1204,-0.1205,-0.1206,-0.094,0,0,0,0,0,0,-0.0737,-0.077,-0.0816,-0.082,-0.0782,-0.0833,-0.0843,-0.0861,-0.0946,-0.0955,-0.0892,-0.0895,-0.1007,-0.1018,-0.1028,-0.098,-0.1071,-0.1076,-0.1079,-0.1205,-0.1206,-0.1206,0,0,0,0,0,0,-0.0766,-0.0774,-0.0819,-0.0811,-0.0815,-0.0832,-0.0841,-0.0886,-0.0947,-0.0898,-0.09,-0.0892,-0.0988,-0.1016,-0.1024,-0.1093,-0.1066,-0.1071,-0.1074,-0.1075,-0.1206,-0.1206,0,0,0,0,0,0,-0.077,-0.0776,-0.0812,-0.0814,-0.0818,-0.087,-0.0874,-0.0929,-0.0924,-0.0895,-0.0924,-0.0924,-0.0984,-0.0994,-0.102,-0.1086,-0.1091,-0.1067,-0.1069,-0.1071,-0.1073,0,0,0,0,0,0,0,-0.0773,-0.0722,-0.0781,-0.0817,-0.082,-0.085,-0.0853,-0.0855,-0.0924,-0.0924,-0.0924,-0.0924,-0.1042,-0.1047,-0.1051,-0.108,0,0,-0.1066,-0.1068,0,0,0,0,0,0,0,0,-0.072,-0.0721,-0.0781,-0.0781,-0.0781,-0.085,-0.0852,-0.0854,-0.0924,-0.0924,-0.0924,-0.0924,-0.1043,-0.1047,-0.1051,0,0,0,0,0,0,0,0,0,0,0,0,0,0,0,-0.0781,-0.0781,0,-0.0851,-0.0852,-0.0854,-0.0924,-0.0924,-0.0924,-0.0924,-0.1044,-0.1048,-0.1051,0,0,0,0,0,0,0,0,0,0,0,0,0,0,0,0,0,0,0,0,0,0,0,0,0,0,0,0,0,0,0,0,0,0,0,0,0,0,0,0,0,0,0,0,0,0,0,0,0,0,0,0,0,0,0,0,0,0,0,0,0,0,0,0,0,0,0,0,0]}],[{"header":{"parameterUnit":"kt","parameterCategory":2,"dx":1,"dy":1,"la1":30.253999710083008,"la2":30.299108505249023,"lo1":-89.0895004272461,"lo2":-89.04439544677734,"nx":28,"ny":28,"refTime":"2022-10-12T21:00:00:Z","depth":"4","parameterNumber":3,"parameterNumberName":"V-component_of_CURRENTS"},"data":[0.0266,0.0328,0.0357,0.0392,0.0436,0.0381,0.0277,0.0096,-0.0025,-0.0191,-0.0191,-0.0257,-0.026,-0.0299,-0.0275,-0.0286,-0.0156,-0.0386,-0.0384,-0.0177,-0.0169,-0.0161,-0.0312,0,0,0,0,0,0.0283,0.0319,0.0369,0.0416,0.0441,0.0462,0.025,0.0128,-0.0096,-0.0229,-0.0266,-0.0355,-0.0352,-0.0395,-0.0335,-0.0429,-0.0282,-0.0362,-0.0182,-0.0172,-0.0163,-0.0312,0,0,0,0,0,0,0.0305,0.0319,0.0409,0.0473,0.0497,0.0401,0.0336,0.0146,0.0018,-0.0247,-0.0322,-0.0385,-0.0444,-0.0415,-0.041,-0.0358,-0.0278,-0.0196,-0.0186,-0.0177,-0.0299,-0.0315,-0.0301,0,0,0,0,0,0.0303,0.0395,0.0391,0.0485,0.0507,0.0426,0.0348,0.0238,0.0032,-0.0043,-0.0255,-0.0298,-0.0397,-0.0408,-0.036,-0.0293,-0.0247,-0.0221,-0.0212,-0.0176,-0.0176,-0.0166,-0.0167,-0.0128,-0.0127,-0.0126,-0.0126,0,0.0357,0.0372,0.0422,0.0447,0.047,0.0476,0.0428,0.0329,0.0169,-0.0038,-0.0181,-0.0251,-0.0375,-0.0371,-0.0395,-0.0288,-0.0268,-0.0199,-0.0163,-0.0162,-0.0153,-0.0157,-0.0161,-0.0119,-0.0119,-0.012,-0.012,0,0.038,0.0391,0.0374,0.0348,0.0358,0.0369,0.0303,0.0209,0.0155,-0.0025,-0.0034,-0.0223,-0.0275,-0.0322,-0.0275,-0.0262,-0.0229,-0.02,-0.0159,-0.0147,-0.0144,-0.0152,-0.0107,-0.0109,-0.0112,-0.0113,-0.0115,0,0.0374,0.0359,0.0369,0.0354,0.0326,0.0259,0.0214,0.0144,0.0023,-0.0123,-0.0171,-0.0294,-0.029,-0.0348,-0.0276,-0.0258,-0.0222,-0.0185,-0.0173,-0.0139,-0.0145,-0.011,-0.0113,-0.0098,-0.0099,-0.01,-0.0102,0,0.0399,0.0334,0.0321,0.0284,0.017,0.0173,0.013,-0.001,-0.0098,-0.0182,-0.0236,-0.0325,-0.0326,-0.0274,-0.0275,-0.0245,-0.0241,-0.0199,-0.0187,-0.0189,-0.0119,-0.012,-0.0103,-0.0103,-0.0104,-0.0104,-0.0105,0,0.0369,0.0353,0.0311,0.0217,0.02,0.0159,0.0042,-0.0049,-0.0197,-0.0231,-0.0302,-0.0356,-0.041,-0.035,-0.0336,-0.0355,-0.0254,-0.0236,-0.023,-0.0303,-0.0296,-0.01,-0.0125,-0.0126,-0.0128,-0.0129,-0.013,0,0.0379,0.0352,0.0325,0.0252,0.0211,0.0149,0.0053,-0.0053,-0.0122,-0.0215,-0.028,-0.0349,-0.0343,-0.0334,-0.0346,-0.0363,-0.0306,-0.0363,-0.0211,-0.0205,-0.0272,-0.032,-0.0319,-0.0145,-0.0143,-0.0142,-0.0141,0,0.0387,0.0362,0.0378,0.0356,0.0286,0.0235,0.0139,0.0019,-0.0033,-0.0104,-0.0183,-0.0311,-0.0289,-0.0341,-0.0382,-0.0376,-0.0324,-0.031,-0.0308,-0.0213,-0.022,-0.0322,-0.0321,-0.032,-0.032,-0.032,-0.0151,0,0.0339,0.0355,0.0369,0.0348,0.03,0.0267,0.0172,0.0128,0.0123,0.0045,-0.0059,-0.0134,-0.0214,-0.0258,-0.0283,-0.0343,-0.0281,-0.0297,-0.0239,-0.0284,-0.0203,-0.0195,-0.0277,-0.0276,-0.0276,-0.0275,0,0,0.0357,0.0369,0.0395,0.0379,0.0342,0.0328,0.0278,0.022,0.0126,0.0086,0.0134,-0.0045,-0.009,-0.024,-0.0261,-0.0299,-0.0239,-0.0239,-0.0277,-0.0278,-0.0278,-0.0204,-0.0197,-0.0274,-0.0273,-0.0273,-0.0273,0,0.0334,0.0388,0.0412,0.037,0.0358,0.0304,0.0312,0.0247,0.0236,0.0141,0.0109,0.0049,-0.0053,-0.0133,-0.0181,-0.0281,-0.02,-0.0281,-0.0285,-0.0272,-0.0273,-0.0274,-0.0202,-0.0196,-0.0271,-0.0271,-0.0271,0,0.0314,0.0332,0.0345,0.0325,0.0322,0.0257,0.0284,0.0276,0.0212,0.0203,0.014,0.0093,0.0018,-0.0078,-0.0106,-0.0078,-0.0144,-0.0163,-0.0168,-0.0149,-0.0132,-0.0135,-0.0138,-0.0092,-0.0091,-0.0091,0,0,0.0307,0.0349,0.0287,0.0311,0.0306,0.0275,0.0261,0.0256,0.0211,0.0215,0.0174,0.0132,0.005,0.0032,-0.0042,-0.0119,-0.0076,-0.0141,-0.0149,-0.0156,-0.0141,-0.0126,-0.013,-0.0088,-0.0088,-0.0088,0,0,0.0285,0.0276,0.0298,0.0312,0.0267,0.0198,0.022,0.0213,0.0189,0.023,0.0187,0.0176,0.0104,0.0089,0.0123,-0.0005,0.0029,0.002,0.0009,-0.0002,-0.001,0.0025,0.0149,0,0,0,0,0,0.0252,0.0268,0.0288,0.0286,0.0257,0.0183,0.0174,0.0189,0.0248,0.0248,0.0217,0.0242,0.0091,0.012,0.0103,0.0077,-0.0056,-0.0062,-0.0067,-0.0102,-0.0113,-0.0123,0,0,0,0,0,0,0.0251,0.025,0.0285,0.0222,0.0214,0.0184,0.0224,0.0226,0.0249,0.0261,0.024,0.0237,0.0203,0.0129,0.0114,0.0089,0.0154,-0.0059,-0.0063,-0.0068,-0.0106,-0.0115,-0.0123,0,0,0,0,0,0.0249,0.0248,0.0223,0.022,0.0213,0.0213,0.0228,0.0231,0.0271,0.0203,0.0206,0.0293,0.02,0.0189,0.012,0.0097,0.0165,0.0159,-0.0062,-0.0065,-0.0069,-0.011,0,0,0,0,0,0,0.0248,0.0238,0.022,0.0214,0.0263,0.0217,0.0219,0.0235,0.0214,0.0214,0.0248,0.0256,0.0197,0.0189,0.018,0.01,0.0174,0.0168,0.0164,-0.0065,-0.0068,-0.007,0,0,0,0,0,0,0.0237,0.0235,0.0217,0.0271,0.0273,0.022,0.0223,0.0148,0.0214,0.0261,0.0267,0.0252,0.0213,0.0188,0.0182,0.0062,0.0181,0.0175,0.0171,0.0169,-0.0067,-0.0069,0,0,0,0,0,0,0.0234,0.0232,0.0273,0.0274,0.0276,0.022,0.0153,0.0131,0.0247,0.0262,0.0259,0.0264,0.0211,0.0205,0.0182,0.0065,0.0063,0.018,0.0177,0.0174,0.0172,0,0,0,0,0,0,0,0.0232,0.0269,0.0247,0.0276,0.0278,0.0165,0.0164,0.0162,0.0248,0.0253,0.0258,0.0262,0.0213,0.0206,0.02,0.0068,0,0,0.0181,0.0178,0,0,0,0,0,0,0,0,0.0268,0.0269,0.0247,0.0246,0.0245,0.0165,0.0164,0.0163,0.0249,0.0253,0.0257,0.026,0.0211,0.0206,0.0201,0,0,0,0,0,0,0,0,0,0,0,0,0,0,0,0.0247,0.0246,0,0.0164,0.0164,0.0163,0.025,0.0253,0.0256,0.0259,0.021,0.0206,0.0201,0,0,0,0,0,0,0,0,0,0,0,0,0,0,0,0,0,0,0,0,0,0,0,0,0,0,0,0,0,0,0,0,0,0,0,0,0,0,0,0,0,0,0,0,0,0,0,0,0,0,0,0,0,0,0,0,0,0,0,0,0,0,0,0,0,0,0,0,0]}]]]